Weather History for Lyndonville, VT

Change the Weather History Date:

Wednesday, July 10, 2013

  Actual Average (K1V4) Record (K1V4)
Temperature  
Mean Temperature 70 °F 70 °F  
Max Temperature 74 °F 81 °F 97 °F (1955)
Min Temperature 67 °F 59 °F 41 °F (1954)
Cooling Degree Days 5 6  
Month to date cooling degree days 54  
Year to date cooling degree days 162  
Since 1 June cooling degree days 144  
Growing Degree Days 20 (Base 50)    
Moisture  
Dew Point 65 °F    
Average Humidity 85    
Maximum Humidity 91    
Minimum Humidity 76    
Precipitation  
Precipitation 0.00 in 0.13 in 1.57 in (1931)
Month to date precipitation 1.27  
Year to date precipitation 18.69  
Sea Level Pressure  
Sea Level Pressure 29.92 in    
Wind  
Wind Speed 5 mph (South)    
Max Wind Speed 12 mph    
Max Gust Speed 21 mph    
Visibility 8 miles    
Events Rain    
T = Trace of Precipitation, MM = Missing Value Source: NWS Daily Summary

Daily Weather History Graph

Daily Weather History Graph

Search for Another Location

Airport:

Trip Planner

Search our weather history database for the weather conditions in past years. The results will help you decide how hot, cold, wet, or windy it might be!

Date:

Astronomy

Jul. 10, 2013 Rise Set
Actual Time 5:13 AM EDT 8:33 PM EDT
Civil Twilight 4:37 AM EDT 9:09 PM EDT
Nautical Twilight 3:50 AM EDT 9:56 PM EDT
Astronomical Twilight 2:51 AM EDT 10:54 PM EDT
Moon 7:38 AM EDT (7/10) 9:32 PM EDT (7/10)
Length of Visible Light 16h 32m
Length of Day
15h 20m
Waxing Crescent, 5% of the Moon is Illuminated
Jul 10
Waxing Crescent
Jul 15
First Quarter
Jul 22
Full
Jul 29
Last Quarter
Aug 6
New

Hourly Weather History & Observations

Time (EDT) Temp. Dew Point Humidity Pressure Visibility Wind Dir Wind Speed Gust Speed Precip Events Conditions
12:15 AM 69.3 °F 63.5 °F 82% 30.08 in 10.0 mi South 4.6 mph - N/A   Overcast
12:35 AM 69.1 °F 63.3 °F 82% 30.07 in 10.0 mi South 3.5 mph - N/A   Overcast
12:55 AM 68.9 °F 63.5 °F 83% 30.07 in 10.0 mi South 5.8 mph - N/A   Overcast
1:15 AM 68.9 °F 63.5 °F 83% 30.06 in 10.0 mi SSE 5.8 mph - N/A   Overcast
1:35 AM 68.7 °F 63.5 °F 83% 30.05 in 10.0 mi SSE 5.8 mph - N/A   Overcast
1:55 AM 68.5 °F 63.5 °F 84% 30.05 in 10.0 mi South 4.6 mph - N/A   Overcast
2:15 AM 68.5 °F 63.9 °F 85% 30.05 in 10.0 mi South 5.8 mph - N/A   Overcast
2:35 AM 68.5 °F 63.9 °F 85% 30.05 in 10.0 mi South 4.6 mph - N/A   Overcast
2:55 AM 68.5 °F 63.9 °F 85% 30.04 in 10.0 mi Calm Calm - N/A   Overcast
3:15 AM 68.2 °F 63.9 °F 86% 30.03 in 10.0 mi South 3.5 mph - N/A   Overcast
3:55 AM 68.2 °F 63.7 °F 85% 30.01 in 10.0 mi Calm Calm - N/A   Overcast
4:15 AM 67.6 °F 63.5 °F 87% 30.02 in 10.0 mi Calm Calm - N/A   Overcast
4:35 AM 68.0 °F 63.5 °F 85% 30.01 in 10.0 mi South 3.5 mph - N/A   Overcast
4:55 AM 68.0 °F 63.5 °F 85% 30.01 in 10.0 mi Calm Calm - N/A   Overcast
5:15 AM 67.6 °F 63.1 °F 85% 30.01 in 10.0 mi Calm Calm - N/A   Overcast
5:35 AM 67.6 °F 63.0 °F 85% 30.01 in 10.0 mi South 6.9 mph - N/A   Overcast
5:55 AM 67.6 °F 63.0 °F 85% 30.01 in 10.0 mi South 4.6 mph - N/A   Overcast
6:15 AM 67.6 °F 62.8 °F 84% 30.01 in 10.0 mi South 5.8 mph - N/A   Overcast
6:35 AM 67.6 °F 63.0 °F 85% 30.00 in 10.0 mi SSE 4.6 mph - N/A   Overcast
6:55 AM 68.0 °F 62.8 °F 83% 30.00 in 10.0 mi SE 4.6 mph - N/A   Overcast
7:15 AM 68.4 °F 63.0 °F 83% 29.99 in 10.0 mi SSE 3.5 mph - N/A   Overcast
7:35 AM 68.5 °F 62.6 °F 81% 29.98 in 10.0 mi SSE 4.6 mph - N/A   Overcast
7:55 AM 68.5 °F 62.6 °F 81% 29.98 in 10.0 mi South 6.9 mph - N/A   Overcast
8:15 AM 68.9 °F 63.1 °F 82% 29.97 in 10.0 mi South 5.8 mph - N/A   Overcast
8:35 AM 69.3 °F 63.5 °F 82% 29.96 in 10.0 mi SSE 6.9 mph - N/A   Overcast
8:55 AM 69.6 °F 63.1 °F 80% 29.96 in 10.0 mi South 6.9 mph - N/A   Overcast
9:15 AM 69.3 °F 63.5 °F 82% 29.96 in 10.0 mi South 4.6 mph - N/A   Overcast
9:35 AM 68.9 °F 63.5 °F 83% 29.96 in 10.0 mi SSW 8.1 mph - N/A   Overcast
9:55 AM 68.5 °F 63.5 °F 84% 29.96 in 7.0 mi SSW 4.6 mph - N/A Rain Rain
10:15 AM 68.5 °F 63.9 °F 85% 29.96 in 7.0 mi South 6.9 mph - N/A   Overcast
10:35 AM 67.8 °F 63.5 °F 86% 29.95 in 3.0 mi South 10.4 mph - N/A Rain Heavy Rain
10:55 AM 68.2 °F 64.6 °F 88% 29.95 in 3.0 mi SSE 8.1 mph - N/A Rain Light Rain
11:15 AM 68.2 °F 64.8 °F 89% 29.95 in 5.0 mi South 8.1 mph - N/A   Overcast
11:35 AM 68.5 °F 64.8 °F 88% 29.94 in 7.0 mi SSE 9.2 mph - N/A   Overcast
11:55 AM 69.4 °F 64.9 °F 86% 29.93 in 10.0 mi South 8.1 mph - N/A   Overcast
12:15 PM 70.3 °F 64.9 °F 83% 29.92 in 10.0 mi South 11.5 mph 19.6 mph N/A   Overcast
12:35 PM 70.3 °F 64.6 °F 82% 29.92 in 10.0 mi South 10.4 mph 20.7 mph N/A   Overcast
12:55 PM 71.8 °F 65.3 °F 80% 29.91 in 10.0 mi South 9.2 mph - N/A   Overcast
1:15 PM 71.2 °F 64.9 °F 80% 29.91 in 10.0 mi South 11.5 mph 18.4 mph N/A   Overcast
1:35 PM 72.5 °F 65.7 °F 79% 29.90 in 10.0 mi South 11.5 mph 19.6 mph N/A   Overcast
1:55 PM 73.9 °F 65.8 °F 76% 29.89 in 10.0 mi South 9.2 mph 17.3 mph N/A   Overcast
2:15 PM 72.5 °F 65.5 °F 79% 29.88 in 7.0 mi South 9.2 mph 19.6 mph N/A   Overcast
2:35 PM 72.5 °F 65.5 °F 79% 29.87 in 7.0 mi South 5.8 mph - N/A   Overcast
2:55 PM 71.8 °F 65.5 °F 80% 29.86 in 7.0 mi South 6.9 mph - N/A   Overcast
3:15 PM 72.0 °F 66.2 °F 82% 29.86 in 5.0 mi South 5.8 mph - N/A Rain Light Rain
3:35 PM 71.6 °F 66.6 °F 84% 29.85 in 5.0 mi South 6.9 mph - N/A Rain Light Rain
3:55 PM 71.2 °F 66.6 °F 85% 29.84 in 5.0 mi South 4.6 mph - N/A Rain Light Rain
4:15 PM 70.5 °F 66.6 °F 87% 29.84 in 2.5 mi South 6.9 mph - N/A Rain Heavy Rain
4:35 PM 70.3 °F 67.1 °F 89% 29.83 in 1.5 mi South 5.8 mph - N/A Rain Rain
4:55 PM 70.3 °F 67.1 °F 89% 29.83 in 1.8 mi South 4.6 mph - N/A Rain Light Rain
5:15 PM 70.0 °F 67.1 °F 91% 29.83 in 1.5 mi South 3.5 mph - N/A   Overcast
5:35 PM 70.2 °F 67.1 °F 90% 29.82 in 1.5 mi South 3.5 mph - N/A   Overcast
5:55 PM 70.7 °F 67.1 °F 88% 29.81 in 4.0 mi Calm Calm - N/A   Overcast
6:15 PM 70.7 °F 66.6 °F 87% 29.81 in 5.0 mi South 3.5 mph - N/A   Mostly Cloudy
6:35 PM 70.7 °F 67.1 °F 88% 29.81 in 3.0 mi Calm Calm - N/A   Mostly Cloudy
6:55 PM 70.3 °F 66.7 °F 88% 29.81 in 3.0 mi South 4.6 mph - N/A   Overcast
7:15 PM 70.3 °F 67.1 °F 89% 29.81 in 3.0 mi South 4.6 mph - N/A   Overcast
7:35 PM 70.5 °F 66.9 °F 88% 29.81 in 5.0 mi South 6.9 mph - N/A   Mostly Cloudy
7:55 PM 70.3 °F 66.6 °F 88% 29.81 in 7.0 mi South 6.9 mph - N/A   Scattered Clouds
8:15 PM 70.3 °F 66.7 °F 88% 29.81 in 7.0 mi South 5.8 mph - N/A   Mostly Cloudy
8:35 PM 70.3 °F 66.4 °F 87% 29.81 in 10.0 mi South 5.8 mph - N/A   Overcast
8:55 PM 70.3 °F 66.6 °F 88% 29.81 in 10.0 mi SSE 5.8 mph - N/A   Overcast
9:15 PM 70.3 °F 66.6 °F 88% 29.81 in 10.0 mi South 6.9 mph - N/A   Overcast
9:35 PM 70.3 °F 66.6 °F 88% 29.81 in 10.0 mi South 6.9 mph - N/A   Overcast
9:55 PM 70.3 °F 67.1 °F 89% 29.81 in 10.0 mi South 6.9 mph - N/A   Overcast
10:15 PM 70.3 °F 67.1 °F 89% 29.81 in 7.0 mi South 5.8 mph - N/A   Overcast
10:35 PM 70.3 °F 66.7 °F 88% 29.81 in 7.0 mi South 8.1 mph - N/A   Overcast
10:55 PM 70.5 °F 66.9 °F 88% 29.81 in 7.0 mi South 6.9 mph - N/A   Overcast
11:15 PM 70.7 °F 67.3 °F 89% 29.81 in 7.0 mi South 6.9 mph - N/A   Overcast
11:35 PM 70.7 °F 67.1 °F 88% 29.81 in 7.0 mi South 6.9 mph - N/A   Overcast
11:55 PM 70.7 °F 67.3 °F 89% 29.81 in 7.0 mi South 4.6 mph - N/A   Overcast